loading
|

DELTA 1 R/B(2) *, 2971

Orbit data source: Space-Track

DELTA 1 R/B(2) *, 2971 is space debris in HEO originally from a launch on Thu, 28 Sep 1967 UTC launched from the Air Force Eastern Test Range (AFETR). Debris objects in space refer to the collection of defunct objects orbiting the Earth. Examples of debris include non-operational satellites, rocket bodies, and fragments generated from explosions, collisions, or faulty payload assembly.

Loading next visibility...
Loading greatness...
DELTA 1 R/B(2) * details
Identifier
2971, 1967-094C
Orbit
HEO
Last TLE update20 hours ago
Origin
Flag of USGSFC (US)
ManufacturerUTC
MissionSpacecraft
Bus & MotorFW4, Unknown motor
Mass~40 kg wet, ~40 kg dry
Launch date (UTC)
1967-09-28 (57 years ago)
Launch vehicleUnknown
Launch site
Air Force Eastern Test Range (AFETR)
Object type
Payload
Rocket body
Debris
Shape & HBRCyl, 1.5 m
Radar Cross Section0.687 m², Large (>1 m²)

Expand to show TLE details & history

TLE from 20 hours ago
0 DELTA 1 R/B(2) *
1  2971U 67094C   24284.13920322  .00006504  00000-0  21808-2 0  9993
2  2971  28.0826 155.9842 6593993 286.4775  14.4924  3.16918131540202
Epoch: 2024-10-10T03:20Z
Definitive object data (Epoch: 2024-10-10T03:20:27.158Z)
Latitude0.00034°
Longitude86.6932°
Altitude2,962.034 km
Speed8.062 km/s
True Right ascension10h 24m 08s
True Declination0° 00' 01"
Sunlit
Object was in daylight at TLE epoch
Predictive object data (real-time)
Latitude23.49582°
Longitude-148.23687°
Altitude24,080.834 km
Speed2.412 km/s
Apparent Right ascension19h 00m 51s
Apparent Declination19° 00' 12"
Sunlit
Object is in daylight
Predictive observer data (real-time)
Local Sidereal Time17:24:18
Azimuth128.166° SE
Elevation60.542°
Doppler factor1
Orbital elements
Apogee26,115.627 km
Perigee291.384 km
Semi-major axis19,581.643 km
Eccentricity0.6593993
Inclination28.0826°
RAAN155.9842°
Arg. of periapsis286.4775°
True anomaly73.65887°
Mean anomaly14.4924°
Eccentric anomaly37.48299°
Mean motion0.79208 °/min
BSTAR0.0021808
Period454.5 mins
No data available
No data available

DELTA 1 R/B(2) * Visibility forecast

Observer location: 39.9160978°, -105.1181434

DELTA 1 R/B(2) * is not visible in the next 10 days
Span
Click to sort rows by Start time (UTC) header in descending order
Start Az.
Max El. time (UTC)
Max El. Az.
Max El.
End time (UTC)
End Az.